Location: Capvern
(43.1036°N, 0.3160°E)
Time: 23:34:02
(UTC+00:00)

MOS 1-B Rocket - Pass Details

Date: 16 October 2021
Orbit: 890 x 1605 km, 99.0° (Epoch: 04 December)

Event Time Altitude Azimuth Distance (km) Brightness Sun altitude
Rises 17:48:29 0° 17° (NNE) 4,194 7.1 -7.0°
Reaches altitude 10° 17:51:25 10° 23° (NNE) 3,118 6.4 -7.6°
Maximum altitude 17:58:11 51° 98° (E) 1,311 4.3 -8.8°
Drops below altitude 10° 18:04:01 10° 173° (S) 2,694 6.3 -9.8°
Sets 18:06:23 0° 179° (S) 3,580 7.0 -10.3°
